SCOUT X-4 R/B, 1358

Orbit data source: Space-Track

SCOUT X-4 R/B, 1358 is space debris in LEO originally from a launch on Thu, 29 Apr 1965 UTC launched from the Wallops Island (WLPIS). Debris objects in space refer to the collection of defunct objects orbiting the Earth. Examples of debris include non-operational satellites, rocket bodies, and fragments generated from explosions, collisions, or faulty payload assembly.

Loading next visibility...
Identifier
1358, 1965-032B
Orbit
LEO
Country
Flag of USUS
Related business
Manufacturer
ABL
Mission
Spacecraft
Bus & Motor
ALTAIR, Unknown motor
Mass
33 kg wet, 33 kg dry
Launch date (UTC)
1965-04-29 (61 years ago)
Launch vehicle
Unknown
Launch site
Wallops Island (WLPIS)
Object type
Payload
Rocket body
Debris
Shape & HBR
Unknown
Radar Cross Section
Medium (>0.1 m² and <1 m²)

Expand to show TLE details & history
Last TLE update: 9 hours ago

TLE from 9 hours ago
0 SCOUT X-4 R/B
1 01358U 65032B   26127.75159172 -.00000041  00000-0  69514-4 0  9993
2 01358  41.1900 240.7355 0243548  13.2895 347.4131 13.38246064982250
Epoch: 2026-05-07T18:02Z
TLE epoch observation values (Epoch: 2026-05-07T18:02:17.524Z)
Latitude
-0.00002°
Longitude
104.56923°
Altitude
937.545 km
Speed
7.472 km/s
True Right ascension
16h 02m 56s
True Declination
0° 00' 00"
Sunlit
Object was in full shadow at epoch
Visualization orbit readout
Latitude
Unknown
Longitude
Unknown
Altitude
Unknown
Speed
Unknown
Apparent Right ascension
Unknown
Apparent Declination
Unknown
Sunlit
N/A
Visualization observer readout
Local Sidereal Time
11:19:25
Azimuth
Unknown
Elevation
Unknown
Doppler factor
Unknown
Orbital elements
Apogee altitude
1,300.444 km
Perigee altitude
935.316 km
Semi-major axis
7,496.017 km
Eccentricity
0.02435
Inclination
41.19°
RAAN
240.7355°
Arg. of periapsis
13.2895°
True anomaly
346.78633°
Mean anomaly
347.4131°
Eccentric anomaly
347.10161°
Mean motion
3.34424 °/min
Orbital period
107.65 mins
BSTAR
0.000069514
Loading maneuver chart data...
Computing Atmospheric mass density...
Loading historical data...
Loading historical data...
Loading historical data...
Loading historical data...
Loading historical data...
Loading historical data...
Loading historical data...
Other satellites on launch #32 in the year 1965 (1965-04-29 UTC)

Documentation

Showing up to 5 results
|